Location: Arbon
(43.0005°N, 0.7472°E)
Time: 02:08:28
(UTC+00:00)

Meteor 2-13 Rocket - Pass Details

Date: 07 August 2020
Orbit: 937 x 957 km, 82.5° (Epoch: 19 September)

Event Time Altitude Azimuth Distance (km) Brightness Sun altitude
Rises 01:24:54 0° 351° (N) 3,616 8.3 -27.7°
Reaches altitude 10° 01:27:23 10° 351° (N) 2,670 7.5 -27.6°
Maximum altitude 01:33:30 86° 264° (W) 955 4.3 -27.1°
Enters shadow 01:34:10 73° 185° (S) 992 4.3 -27.1°
